User: anonymous   Login
Location: Albany
(35.0000°S, 118.0000°E)
Time: 08:36:28
(UTC-05:00)
Language:

TRMM - Orbit

View from above orbital plane
View from above orbital plane
View from above satellite
View from above satellite

Ground track
Ground track

The orbit data is extracted from the following two-line orbital elements,

1 25063U 97074A   14351.49597237  .00056327  00000-0  52547-3 0  8261
2 25063 034.9546 001.6756 0003839 206.9876 283.8987 15.66159815973321
Epoch (UTC): 17 December 2014 11:54:12
Eccentricity: 0.0003839
inclination: 34.9546°
perigee height: 367 km
apogee height: 372 km
right ascension of ascending node: 1.6756°
argument of perigee: 206.9876°
revolutions per day: 15.66159815
mean anomaly at epoch: 283.8987°
orbit number at epoch: 97332

The dashed part of the orbit path shows where the satellite is in the earth's shadow,  

DLR